Location: Leuk
(46.3174°N, 7.6341°E)
Time: 05:40:15
(UTC+00:00)

PAYLOAD A - Pass Details

Date: 09 March 2021
Orbit: 692 x 831 km, 98.4° (Epoch: 18 April)

Event Time Altitude Azimuth Distance (km) Brightness Sun altitude
Rises 03:55:48 0° 9° (N) 3,316 7.6 -21.0°
Reaches altitude 10° 03:58:11 10° 4° (N) 2,399 6.8 -20.6°
Maximum altitude 04:03:18 49° 291° (WNW) 1,050 4.3 -19.7°
Enters shadow 04:05:04 36° 241° (WSW) 1,294 4.6 -19.5°
